Location: Newark
(25.0000°N, 73.5000°E)
Time: 04:23:50
(UTC+00:00)

Altair - Pass Details

Date: 04 March 2021
Orbit: 1501 x 1683 km, 47.2° (Epoch: 12 April)

Event Time Altitude Azimuth Distance (km) Brightness Sun altitude
Rises 14:30:37 0° 272° (W) 4,629 11.7 -19.1°
Reaches altitude 10° 14:34:22 10° 285° (WNW) 3,656 10.6 -20.0°
Maximum altitude 14:41:38 25° 338° (NNW) 2,674 9.0 -21.6°
Drops below altitude 10° 14:49:05 10° 31° (NNE) 3,737 9.3 -23.3°
Enters shadow 14:50:27 - 36° (NE) 4,071 9.4 -23.6°
Sets 14:53:01 0° 44° (NE) 4,751 - -24.2°
